www.pogodaiklimat.ru

Погода и климат >> Архив погоды >> Индонезия >> Sintang


ПОГОДА в Sintang

  • Прогноз погоды в Sintang
  • Монитор погоды в Sintang
  • Климат города

АРХИВ ПОГОДЫ в Sintang

Время (UTC), дата Ветер
(напр.,м/с)
 
Видим.   Явления Облачность Т
(С)
Тd
(С)
f
(%)
Тe
(С)
Тes
(С)
Комфортность P
(гПа)
Po
(гПа)
Тmin
(С)
Tmax
(С)
R
(мм)
R24
(мм)
S
(см)
12 11.12 ЮЗ 2 5000 м {дождь} 10/6 400 м
[Cb cap As op]
+24.7 +24.1 96 +34 +34 очень
душно
1012.1 1008.4 +32.2 16
15 11.12 штиль 0 4000 м мгла {дождь} 10/6 400 м
[Cb cap As op]
+24.2 +23.8 98 +33 +33 очень
душно
1013.2 1009.5 2
18 11.12 штиль 0 3000 м дымка {дождь} 10/6 420 м
[Cu hum As op]
+24.0 +23.4 96 +32 +32 очень
душно
1013.0 1009.3 2
21 11.12 штиль 0 2000 м дымка 10/6 400 м
[Cu hum As op]
+23.6 +23.3 98 +32 +32 очень
душно
1010.8 1007.1
00 12.12 штиль 0 4000 м дымка {дождь} 6/5 450 м
[Cu hum Ac As]
+24.0 +23.1 95 +32 +33 очень
душно
1012.9 1009.2 +23.0 17
03 12.12 СЗ 2 7000 м 6/6 420 м
[Cu hum]
+27.8 +24.7 83 +39 +46 очень
душно
1013.2 1009.5
06 12.12 СЗ 3 9000 м 5/5 450 м
[Cu med, cong Ci fib]
+31.0 +26.3 76 +47 +54 опасность
перегрева
1009.5 1005.8
09 12.12 З 2 5000 м слабый дождь 10/8 420 м
[Cb cap As op]
+25.6 +24.5 94 +36 +36 очень
душно
1009.5 1005.8 0.3
12 12.12 З 2 5000 м зарница {дождь} 10/8 400 м
[Cb cap As op]
+24.0 +23.4 96 +32 +32 очень
душно
1011.5 1007.8 +33.0 0.2
15 12.12 штиль 0 3000 м слабый дождь 10/8 400 м
[Cu hum As op]
+23.6 +23.0 96 +31 +31 очень
душно
1013.0 1009.3 0.2
18 12.12 штиль 0 3000 м дымка {дождь} 10/6 400 м
[Cu hum As op]
+23.4 +22.8 96 +33 +33 очень
душно
1011.5 1007.8 0.1
21 12.12 штиль 0 3000 м дымка 10/5 400 м
[Cu hum As op]
+23.2 +22.9 98 +32 +32 очень
душно
1010.8 1007.1
00 13.12 штиль 0 4000 м дымка {дождь} 9/6 400 м
[Cu hum Ac As]
+23.4 +22.8 96 +33 +33 очень
душно
1012.2 1008.5 +23.0 1
03 13.12 штиль 0 6000 м 9/8 420 м
[Cu hum As trans]
+26.8 +24.5 87 +38 +41 очень
душно
1013.1 1009.4
06 13.12 ЮЗ 2 8000 м 4/4 420 м
[Cu med, cong]
+31.2 +26.5 76 +48 +58 опасность
перегрева
1010.1 1006.3
09 13.12 С 3 7000 м {дождь} 8/3 450 м
[Cu med, cong Ac trans]
+29.4 +24.0 73 +41 +42 опасность
перегрева
1008.0 1004.3 2
12 13.12 штиль 0 2000 м гроза, ливневой дождь 10/8 360 м
[Cb cap As op]
+23.6 +23.3 98 +32 +32 очень
душно
1012.5 1008.8 +32.0 21
15 13.12 штиль 0 2000 м слабый дождь {гроза} 10/8 360 м
[Cb cap As op]
+23.7 +23.4 98 +32 +32 очень
душно
1013.6 1009.8 14
18 13.12 штиль 0 50 км слабый дождь {гроза} ?/? +24.8 +23.0 90 +33 +33 очень
душно
1011.7 1008.0 2
21 13.12 штиль 0 4000 м дымка {дождь} 10/4 360 м
[Cu hum As op]
+23.6 +23.3 98 +32 +32 очень
душно
1010.9 1007.2 1
00 14.12 штиль 0 5000 м мгла {дождь} 10/6 360 м
[Cu hum As op]
+23.5 +22.9 96 +31 +31 очень
душно
1012.4 1008.6 +23.1 40
03 14.12 штиль 0 5000 м 10/6 400 м
[Cu hum As op]
+26.9 +24.8 88 +38 +40 очень
душно
1012.7 1009.0
21 14.12 штиль 0 4000 м дымка 10/6 360 м
[Cu hum As op]
+22.6 +22.3 98 +30 +30 очень
душно
1011.1 1007.4
00 15.12 штиль 0 6000 м {дождь} 8/4 400 м
[Cu hum Ac trans]
+23.3 +22.7 96 +32 +33 очень
душно
1012.1 1008.4 +22.3 18
03 15.12 штиль 0 6000 м 9/6 420 м
[Cu hum Ac trans]
+27.5 +24.7 85 +39 +44 очень
душно
1012.5 1008.7
06 15.12 СЗ 2 7000 м 8/5 420 м
[Cu hum Ac As Ci fib]
+30.5 +25.2 73 +44 +50 опасность
перегрева
1009.9 1006.1
09 15.12 З 2 8000 м 9/5 420 м
[Cu med, cong Ac As]
+31.2 +25.9 73 +46 +47 опасность
перегрева
1008.6 1004.9
12 15.12 штиль 0 5000 м мгла 9/5 400 м
[Cu hum Ac As]
+28.2 +26.3 89 +43 +43 опасность
перегрева
1010.5 1006.7 +32.4
15 15.12 С 1 4000 м мгла 9/5 400 м
[Cu hum Ac As]
+26.0 +24.6 92 +37 +37 очень
душно
1012.0 1008.2
18 15.12 штиль 0 4000 м дымка 10/6 400 м
[Cu hum As op]
+25.0 +24.4 96 +35 +35 очень
душно
1011.6 1007.8
21 15.12 штиль 0 5000 м мгла 6/4 420 м
[Cu hum Ac As]
+24.4 +23.8 96 +33 +33 очень
душно
1010.6 1006.9
00 16.12 штиль 0 5000 м мгла 4/3 480 м
[Sc diur, vesp Ac trans]
+24.8 +23.9 95 +34 +36 очень
душно
1011.6 1007.9 +23.0
03 16.12 СЗ 3 8000 м 6/6 420 м
[Cu hum Ci fib]
+30.0 +25.8 78 +45 +50 опасность
перегрева
1011.7 1007.9
06 16.12 штиль 0 8000 м 6/5 450 м
[Cu med, cong Ac trans Ci fib]
+32.6 +26.8 72 +50 +60 опасность
перегрева
1009.8 1006.1
09 16.12 ЮЗ 2 7000 м 8/4 480 м
[Cu med, cong As trans Ci fib]
+30.7 +26.0 76 +46 +47 опасность
перегрева
1008.0 1004.3
12 16.12 штиль 0 6000 м 9/4 450 м
[Cu med, cong As trans Ci fib]
+28.0 +25.8 88 +42 +42 опасность
перегрева
1010.2 1006.4 +33.1
21 16.12 штиль 0 4000 м 9/6 400 м
[Cu hum Ac As]
+24.0 +23.4 96 +32 +32 очень
душно
1010.1 1006.4
00 17.12 штиль 0 5000 м мгла ясно +24.2 +23.6 96 +33 +36 очень
душно
1011.8 1008.0 +23.6
03 17.12 ЮЗ 4 8000 м 4/4 450 м
[Cu hum]
+30.4 +25.9 77 +45 +52 опасность
перегрева
1011.9 1008.2
06 17.12 З 3 9000 м 5/4 450 м
[Cu med, cong Ci fib]
+32.6 +25.9 68 +48 +57 опасность
перегрева
1009.3 1005.6
09 17.12 З 4 3000 м слабый дождь 10/8 400 м
[Cb cap As op]
+27.0 +24.1 84 +37 +38 очень
душно
1009.8 1006.1 1
12 17.12 штиль 0 5000 м мгла {дождь} 10/5 400 м
[Cu hum Ac As]
+25.2 +24.0 93 +35 +35 очень
душно
1011.5 1008.0 +33.6 0.2
15 17.12 штиль 0 4000 м дымка 9/5 400 м
[Cu hum Ac As]
+24.4 +23.8 96 +33 +33 очень
душно
1012.9 1009.2
18 17.12 штиль 0 3000 м дымка 9/5 400 м
[Cu hum Ac As]
+23.4 +22.8 96 +33 +33 очень
душно
1011.8 1007.8
21 17.12 штиль 0 3000 м дымка 9/5 420 м
[Cu hum Ac As]
+23.0 +22.7 98 +32 +32 очень
душно
1010.9 1007.2
00 18.12 штиль 0 5000 м мгла {дождь} 5/3 400 м
[Cu hum Ac trans]
+23.4 +22.8 96 +33 +35 очень
душно
1011.5 1007.7 +22.8 1
03 18.12 СЗ 2 8000 м 5/5 420 м
[Cu hum Ac trans Ci fib]
+28.0 +24.9 83 +40 +48 очень
душно
1011.9 1008.2
06 18.12 З 3 7000 м {дождь} 8/6 420 м
[Cb calv Ac As Ci fib]
+30.8 +25.2 72 +45 +49 опасность
перегрева
1010.2 1006.5 0.0
09 18.12 З 2 9000 м 5/4 420 м
[Cb cap Ac trans Ci fib]
+30.0 +26.1 80 +45 +47 опасность
перегрева
1008.1 1004.4

 

Местоположение метеостанции Sintang (Индонезия): широта 0.12 долгота 111.53 высота над уровнем моря 30 м.

В архиве по умолчанию представлена погода в Sintang за последнюю неделю. Архивные данные за месяц целиком и за предыдущие месяцы, начиная с января 2011 года, Вы можете получить, выбрав интересующий диапазон дат из раскрывающегося списка и нажав кнопку "Ввод!".

Внимание! Время в таблицах - всемирное. Для получения местного времени необходимо прибавить поправку, которая в Sintang равна 7 ч.

Смотрите также архив погоды в соседних городах и на ближайших метеорологических станциях:

Погода в Nangapinoh (Индонезия) (59 км)
Погода в Putussibau (Индонезия) (176 км)
Погода в Kuching (Малайзия) (202 км)
Погода в Pontianak (Индонезия) (239 км)
Погода в Sibu (Малайзия) (248 км)
Погода в Ketapang (Индонезия) (280 км)
Погода в Palangkaraya (Индонезия) (302 км)
Погода в Paloh (Индонезия) (309 км)
Погода в Pangkalan Bun (Индонезия) (314 км)
Погода в Bintulu (Малайзия) (381 км)

Пояснения к столбцам:

Ветер - указаны скорость ветра в м/с - средняя за 10 мин, порывы в срок и между сроками (в фигурных скобках) и направление, откуда дует ветер: С - северный, СВ - северо-восточный, В - восточный, ЮВ - юго-восточный, Ю - южный, ЮЗ - юго-западный, З - западный, СЗ - северо-западный.
Видимость - горизонтальная дальность видимости в метрах или километрах. При видимости от 1 до 10 км при отсутствии осадков обычно наблюдается дымка, при ухудшении видимости до 1 км и менее - туман. В сухую погоду видимость может ухудшаться дымом, пылью или мглою.
Явления - указаны атмосферные явления, наблюдавшиеся в срок или в последний час перед сроком; фигурными скобками обозначены явления, наблюдавшиеся между сроками (за 1-3 часа до срока); квадратными скобками обозначены град или гололедные отложения с указанием их диаметра в мм.
Облачность - указаны через наклонную черту общая и нижняя облачность в баллах и высота нижней границы облаков в метрах; квадратными скобками обозначены формы облаков: Ci - перистые, Cs - перисто-слоистые, Cc - перисто-кучевые, Ac - высококучевые, As - высокослоистые, Sc - слоисто-кучевые, Ns - слоисто-дождевые, Cu - кучевые, Cb - кучево-дождевые. Подробнее классификацию облаков см. в Атласе облаков (PDF).
T - Температура воздуха - температура, измеренная на высоте 2 м над землей.
Td - Температура точки росы - температура, при понижении до которой содержащийся в воздухе водяной пар достигнет насыщения.
f - Относительная влажность воздуха - влажноcть воздуха, измеренная на высоте 2 м над землей.
Te - Эффективная температура - температура, которую ощущает одетый по сезону человек в тени. Характеристика душности погоды. При расчете учитывается влияние влажности воздуха и скорости ветра на теплоощущения человека.
Tes - Эффективная температура на солнце - температура, которую ощущает человек, с поправкой на солнечный нагрев. Характеристика знойности погоды. Зависит от высоты солнца над горизонтом, облачности и скорости ветра. Ночью, в пасмурную погоду, а также при ветре 12 м/с и более поправка равна нулю.
P - Атмосферное давление - приведенное к уровню моря атмосферное давление.
Po - Атмосферное давление - измеренное на уровне метеостанции атмосферное давление.
Tmin - Минимальная температура - минимум температуры воздуха на высоте 2 м над землей.
Tmax - Максимальная температура - максимум температуры воздуха на высоте 2 м над землей.
R - Количество осадков - Количество выпавших осадков за период времени, мм. При наведении курсора мыши на число - период времени, за который выпало указанное количество осадков.
R24 - Количество осадков - Количество выпавших осадков за 24 часа, мм.
S - Снежный покров - Высота снежного покрова, см. При наведении курсора мыши на число - состояние снежного покрова и степень покрытия местности в баллах.